Regional Weather Roundup
Issued by NWS

Home | Current Version | Previous Version | Graphics & Text | Print | Product List | Glossary On
Versions: 1 2 3 4 5 6 7 8 9 10 11 12 13 14 15 16 17 18 19 20 21 22 23 24 25 26 27
000
ASUS45 KBOU 282107
RWRCO

WEATHER ROUNDUP FOR COLORADO
NATIONAL WEATHER SERVICE DENVER/BOULDER CO
300 PM MDT THU JUL 28 2016

NOTE: "FAIR" INDICATES FEW OR NO CLOUDS BELOW 12000 FEET WITH NO
SIGNIFICANT WEATHER AND/OR OBSTRUCTIONS TO VISIBILITY.

COZ001>005-013-030-031-282200-
...NORTHWEST COLORADO...

CITY           SKY/WX    TMP DP  RH WIND       PRES   REMARKS
CRAIG          FAIR      94  23   8 NW9G22    30.19F
HAYDEN         FAIR      90  28  11 W17G28    30.22F
MEEKER         FAIR      93  25   8 NW13G25   30.20F
MOUNT WERNER   NOT AVBL
STEAMBOAT SPGS FAIR      87  29  12 W22G28    30.24F
WALDEN         FAIR      81  27  13 W21G26    30.35F
$$

COZ006>008-011-282200-
...WEST CENTRAL VALLEYS...

CITY           SKY/WX    TMP DP  RH WIND       PRES   REMARKS
GRAND JUNCTION FAIR     101  25   7 W10       30.05F
MONTROSE       FAIR      96  28   9 NW9       30.16F
EAGLE          MOSUNNY   91  28  10 S13G25    30.21F
RIFLE          FAIR      96  25   8 W14G21    30.10F
DELTA          NOT AVBL
NUCLA          NOT AVBL
$$

COZ017>023-064>068-282200-
...SOUTHWEST COLORADO...

CITY           SKY/WX    TMP DP  RH WIND       PRES   REMARKS
DURANGO        PTSUNNY   82  36  19 NW13      30.27R
CORTEZ         FAIR      98  35  11 VRB6      30.16F
PAGOSA SPRINGS PTSUNNY   80  28  14 S16G24    30.36S
TELLURIDE      FAIR      82  22  11 W10G23    30.48F
WOLF CREEK PAS FAIR      61  32  33 S9        30.74F
$$

COZ009-010-012-014-032>034-037-058>063-282200-
...CENTRAL COLORADO...

CITY           SKY/WX    TMP DP  RH WIND       PRES   REMARKS
ASPEN          FAIR      85  24  11 N8G25     30.32F
BUENA VISTA    FAIR      89  17   7 NW23G35   30.32S
COPPER MTN     PTSUNNY   64  16  15 W17G52    30.72R
BERTHOUD PASS  PTSUNNY   54  39  58 NW24      30.72R
COTTONWOOD PAS FAIR      79  -2   4 NW10G20   30.50R
GUNNISON       FAIR      84  27  12 W12       30.34F
KREMMLING      FAIR      88  12   6 NW14G20   30.29F
LEADVILLE      PTSUNNY   74  19  12 NW20G26   30.51S
MONARCH PASS   PTSUNNY   70  21  16 MISG      30.80F
SALIDA         FAIR      91  24   9 W7        30.34F
SUNLIGHT       NOT AVBL
WILKERSON PASS FAIR      68  14  12 NW9G22    30.66S
$$

COZ069>075-282200-
...SAN LUIS VALLEY/SANGRE DE CRISTO MOUNTAINS...

CITY           SKY/WX    TMP DP  RH WIND       PRES   REMARKS
ALAMOSA        FAIR      88  31  13 N6G20     30.30F
LA VETA PASS   PTSUNNY   77  30  18 NW7       30.54F
SAGUACHE       FAIR      90  23   9 NW20G32   30.31F
$$

COZ035-036-038>040-282200-
...NORTHERN COLORADO FRONT RANGE...

CITY           SKY/WX    TMP DP  RH WIND       PRES   REMARKS
DENVER INTL AP FAIR      80  56  43 E8G18     30.19S
DMNS CITY PARK   N/A     80  54  40 E7G13     30.18F
AURORA         NOT AVBL
FRONT RANGE AP PTSUNNY   82  59  44 NE6G20    30.21R
ERIE MUNI ARPT PTSUNNY   82  54  37 NE9       30.18F
BOULDER MUN AP PTSUNNY   79  54  41 N8        30.20S
CENTENNIAL     FAIR      82  52  35 N12G21    30.22F
BROOMFIELD     PTSUNNY   82  55  39 N9G17     30.23S
LONGMONT       NOT AVBL
$$

COZ041-046-047-076>085-087-088-282200-
...PIKES PEAK/PALMER DIVIDE AND SOUTHERN FOOTHILLS...

CITY           SKY/WX    TMP DP  RH WIND       PRES   REMARKS
COLO. SPRINGS  PTSUNNY   91  35  13 NE15G26   30.19F
A. F. ACADEMY  NOT AVBL
SCHRIEVER AFB  NOT AVBL
ELLICOTT       NOT AVBL
FALCON         NOT AVBL
FORT CARSON    NOT AVBL
LIMON          FAIR      90  50  25 N10G22    30.13F
MONUMENT HILL  FAIR      77  52  41 NE9G20    30.32S
TRINIDAD       NOT AVBL
$$

COZ042>045-048>051-090-091-282200-
...NORTHEAST COLORADO...

CITY           SKY/WX    TMP DP  RH WIND       PRES   REMARKS
GREELEY ARPT   FAIR      79  57  47 NE13      30.19F
AKRON          FAIR      77  59  53 E9        30.16S
BURLINGTON     FAIR      83  61  47 SE16      30.11F
WRAY           NOT AVBL
STERLING       NOT AVBL
HOLYOKE        NOT AVBL
FORT MORGAN    NOT AVBL
$$

COZ086-089-092>099-282200-
...SOUTHEAST COLORADO...

CITY           SKY/WX    TMP DP  RH WIND       PRES   REMARKS
PUEBLO         FAIR     101  37  11 E8        30.02F
LA JUNTA       FAIR      98  56  24 N9        30.00F
LAMAR          FAIR      98  58  26 E21       29.97F
SPRINGFIELD      N/A     91  51  25 S15G26    30.01F
$$




USA.gov is the U.S. government's official web portal to all federal, state and local government web resources and services.